Wind_Speed
17 16 15 15 14 12 12 12 11 10 10 8 8 7 7 7 6 4 4 4 4 4 5 5 4 5 4 5 3 1 3 4 5 6 7 7 7 8 8 7 6 5
18 16 15 15 14 13 13 13 12 11 11 10 9 8 8 9 8 6 5 6 6 6 7 6 6 5 4 5 4 2 4 5 5 6 7 7 8 8 8 7 6 5
20 18 16 15 14 14 14 14 13 13 12 11 11 10 10 12 10 8 7 8 7 8 8 7 7 7 5 5 5 3 5 6 6 7 7 7 7 8 8 7 7 6
22 20 19 17 15 14 14 14 14 13 12 12 13 12 12 13 12 10 10 10 8 9 10 9 9 8 7 7 5 4 5 6 6 7 7 6 6 7 7 7 6 6
21 22 21 19 17 15 14 14 14 14 13 13 13 13 13 15 14 12 12 12 10 11 11 10 11 9 9 9 6 5 6 6 6 6 5 6 6 5 6 6 6 6
18 19 20 20 18 16 15 15 15 14 14 14 14 14 15 16 16 13 14 14 12 12 12 12 12 11 11 11 8 8 7 5 7 7 4 5 7 6 6 6 6 6
15 16 18 19 18 17 16 16 15 15 15 14 15 15 15 16 17 16 15 15 14 14 14 14 15 14 13 12 10 10 8 7 9 9 5 5 7 8 8 7 5 4
18 17 17 18 18 18 18 17 17 15 15 15 15 16 16 17 17 17 17 17 16 16 16 16 16 15 15 14 12 12 11 11 12 11 6 7 9 9 8 9 9 5
22 23 22 22 21 21 20 20 19 17 15 15 15 16 17 18 18 18 18 19 18 18 18 17 17 17 17 17 15 14 14 15 15 13 10 10 12 10 7 9 11 9
19 21 23 25 25 24 23 23 23 22 20 18 18 19 19 19 19 19 19 20 20 19 19 19 18 18 18 18 17 16 16 17 17 16 14 14 14 11 9 10 12 11
13 15 17 20 23 24 23 22 23 24 23 22 23 23 23 22 21 21 21 21 21 21 20 20 19 18 19 20 19 18 18 18 19 18 18 17 15 14 13 13 14 13
11 13 14 14 16 18 20 22 25 28 27 26 25 24 23 23 22 23 23 23 23 22 21 20 20 19 20 21 20 20 21 21 20 20 19 18 17 16 16 16 16 15
7 9 10 10 12 14 17 19 22 26 27 27 25 24 23 22 22 23 23 24 24 23 23 23 22 22 23 23 22 22 23 22 20 20 19 17 17 16 16 17 17 16
4 5 6 7 9 12 13 15 17 19 21 21 22 23 21 20 21 20 21 22 23 24 25 25 24 25 24 23 23 23 24 23 21 21 19 17 17 17 17 18 18 17
5 6 7 7 7 8 10 12 13 14 16 18 20 21 20 19 20 20 20 21 22 23 24 24 26 27 24 23 23 25 26 25 23 22 20 17 18 18 17 18 19 18
6 8 8 8 8 9 9 10 11 11 13 14 14 17 18 17 18 20 21 22 21 21 23 26 28 26 24 26 28 27 26 26 24 23 20 17 17 17 16 18 18 18
7 8 8 9 9 10 11 11 11 11 12 12 12 13 15 15 15 17 18 20 21 22 25 29 29 25 25 30 33 32 30 27 26 25 22 20 20 19 18 18 17 17
7 8 9 9 10 10 11 11 12 12 13 13 14 15 15 15 16 17 17 17 19 22 26 30 31 28 28 32 35 36 34 29 28 28 26 25 24 23 21 19 18 18
8 9 9 10 10 10 11 11 12 13 14 14 15 16 16 17 18 19 19 17 18 22 25 27 28 28 29 32 35 37 36 32 30 28 27 26 24 23 22 22 21 21
9 9 10 10 10 11 11 12 13 13 14 15 15 16 17 18 20 20 20 19 18 21 22 22 25 28 31 32 32 34 36 33 30 28 27 25 24 24 24 24 24 23
10 10 11 11 11 12 12 13 13 14 14 15 15 16 17 18 19 21 22 21 21 22 20 21 26 30 32 31 29 31 36 34 30 30 29 25 24 25 25 25 24 24
10 11 12 12 12 13 13 14 14 14 15 15 15 16 17 17 18 19 20 20 21 21 20 24 29 30 32 32 29 29 32 32 31 31 28 25 24 23 23 23 23 23
11 12 12 12 13 13 14 14 14 15 15 15 15 16 16 17 18 18 18 19 20 20 22 27 30 31 32 31 28 28 29 29 29 27 23 19 19 19 19 19 19 21
13 13 13 14 14 14 14 14 14 15 15 15 15 16 16 17 18 18 18 19 20 21 24 29 30 30 30 28 27 28 28 27 24 19 15 13 12 14 15 14 15 18
15 15 15 15 15 15 15 15 15 15 15 15 15 16 16 16 16 17 17 19 20 22 24 27 28 28 28 26 27 28 27 26 23 18 15 14 13 12 12 11 13 17
17 17 16 16 16 16 15 16 15 15 15 15 15 16 15 15 16 17 19 21 22 23 24 25 27 28 28 28 28 28 26 25 22 18 16 15 14 13 13 14 15 16
Wind_Direction
192 195 200 203 197 196 200 195 193 197 198 195 198 205 203 213 246 262 233 252 273 286 313 330 336 347 349 348 17 48 340 1 19 19 21 22 23 25 24 25 25 29
197 198 200 205 202 201 204 201 198 198 200 200 199 206 205 211 242 268 255 260 270 277 297 309 313 325 328 331 343 326 321 338 350 360 8 13 18 18 19 23 21 28
204 203 203 206 205 205 207 207 205 202 203 203 199 203 205 214 242 266 262 265 266 269 285 294 299 308 306 310 323 309 310 326 332 342 354 2 6 5 9 15 13 22
214 212 210 210 210 211 210 210 210 208 208 208 206 207 205 219 246 263 263 269 265 263 277 284 290 297 292 297 305 284 295 312 315 325 335 342 352 355 359 6 5 11
220 221 220 219 217 216 216 216 216 215 215 214 213 213 210 225 250 259 259 269 266 261 271 278 284 286 282 292 289 258 278 292 293 311 315 312 326 335 341 353 354 357
225 226 226 227 226 225 225 224 225 224 224 222 221 220 218 230 249 252 251 262 264 259 264 271 279 280 279 285 277 264 272 264 272 298 294 280 300 315 325 337 340 342
231 231 231 231 231 232 233 232 233 232 230 229 226 226 223 228 242 246 244 250 253 251 256 265 272 274 274 277 268 264 266 246 262 290 283 248 273 297 309 315 323 330
242 242 240 240 239 238 238 238 238 237 235 234 230 230 230 228 234 236 234 239 243 241 243 252 262 264 266 269 262 258 263 260 267 284 271 235 256 281 293 296 306 314
244 245 243 245 248 246 244 244 243 242 240 237 233 232 231 229 232 232 230 232 235 232 232 238 244 248 254 263 262 257 264 270 273 278 268 252 262 271 259 267 291 305
240 243 243 242 242 241 244 247 246 244 242 241 240 238 235 233 236 236 230 229 231 229 228 229 229 230 240 255 260 257 261 268 273 276 271 264 268 265 241 243 270 286
238 240 239 241 242 240 242 245 245 245 245 244 245 245 241 236 237 240 237 231 230 229 228 229 228 225 231 246 254 256 259 262 268 273 270 267 266 260 251 252 263 274
242 238 235 244 248 245 244 245 247 248 249 246 244 243 240 235 234 239 240 233 230 231 231 230 231 229 231 239 248 256 261 262 264 265 263 261 259 257 259 261 265 270
255 251 243 246 249 250 251 249 247 249 251 248 244 240 237 235 234 236 237 232 229 231 232 230 230 229 230 236 244 252 256 257 258 256 251 248 248 250 257 264 267 271
285 283 275 263 258 259 260 256 251 250 249 244 239 238 238 236 235 234 232 232 231 233 234 232 228 225 225 232 239 242 246 248 248 247 244 240 244 250 255 261 268 273
291 290 289 288 281 277 275 273 271 264 255 246 240 241 244 241 237 235 232 233 235 235 233 230 227 226 228 232 232 231 237 241 241 243 242 238 245 254 257 261 267 272
289 282 280 281 277 277 279 279 281 278 269 263 255 250 249 245 241 240 238 238 238 236 233 229 228 230 234 233 227 224 228 234 238 242 239 232 238 248 253 259 266 269
290 282 279 277 273 273 273 271 273 274 269 264 258 252 250 249 247 244 241 242 245 246 241 233 230 235 238 233 228 226 228 232 239 242 239 235 240 246 249 256 263 267
286 282 279 277 273 271 271 269 268 267 264 260 256 254 253 249 247 247 245 244 244 245 244 237 236 244 245 235 231 232 233 235 240 244 245 245 248 250 252 255 259 264
285 282 278 275 273 271 269 268 266 264 262 259 257 258 258 251 247 249 253 251 243 243 245 242 240 242 239 235 235 236 235 237 241 245 248 249 250 253 256 259 262 267
285 281 277 274 272 270 268 266 265 263 259 257 255 255 253 252 251 251 253 252 246 247 251 245 238 235 236 238 240 239 238 239 241 242 245 247 251 257 262 265 268 271
286 282 281 280 277 274 271 266 263 261 259 257 256 254 252 251 251 251 251 248 244 248 249 241 235 234 237 240 242 240 239 239 238 240 243 248 253 258 263 267 270 275
282 280 279 279 277 274 270 267 265 263 261 259 258 257 256 252 249 249 248 246 245 247 243 237 236 237 238 241 243 241 237 235 236 239 244 249 254 258 263 269 276 282
280 279 278 276 274 271 268 266 264 262 261 261 260 258 256 254 252 250 246 244 246 244 238 236 237 237 239 243 243 238 232 229 231 238 244 248 252 259 267 275 282 286
282 281 279 276 274 273 270 267 265 263 261 260 259 259 258 256 254 251 248 246 244 238 236 237 237 238 242 242 236 230 225 222 225 230 235 238 246 262 273 277 278 282
285 282 279 277 276 274 271 269 267 265 263 260 260 260 259 257 255 253 248 244 239 235 236 239 240 241 239 230 223 221 218 217 218 219 225 234 244 258 266 268 271 278
285 282 279 278 277 275 272 270 267 265 263 262 262 262 259 258 255 247 239 236 235 234 238 242 243 240 230 219 216 217 217 219 222 226 236 248 257 262 267 272 277 283
Height
1517 1519 1520 1521 1522 1523 1523 1524 1525 1526 1527 1527 1528 1528 1528 1528 1527 1528 1528 1528 1528 1528 1528 1528 1528 1528 1528 1528 1528 1529 1528 1528 1528 1528 1528 1528 1528 1528 1528 1528 1528 1528
1516 1518 1519 1520 1521 1522 1523 1523 1524 1525 1525 1526 1527 1528 1527 1527 1527 1527 1528 1528 1528 1528 1528 1528 1528 1528 1529 1528 1529 1529 1528 1528 1528 1528 1528 1528 1528 1528 1528 1528 1528 1528
1515 1516 1518 1519 1520 1522 1522 1522 1523 1524 1524 1525 1526 1527 1527 1526 1526 1526 1527 1527 1527 1527 1527 1527 1528 1528 1528 1528 1529 1529 1528 1528 1528 1528 1528 1528 1528 1528 1528 1528 1528 1528
1513 1515 1517 1518 1519 1521 1521 1522 1522 1523 1524 1524 1524 1525 1525 1525 1525 1525 1526 1526 1527 1527 1526 1527 1527 1527 1528 1528 1528 1529 1528 1528 1528 1528 1528 1528 1529 1529 1529 1529 1529 1529
1512 1514 1515 1517 1518 1519 1520 1521 1522 1522 1523 1523 1523 1523 1524 1523 1523 1524 1525 1525 1526 1526 1526 1526 1526 1526 1527 1527 1528 1528 1528 1528 1528 1528 1528 1528 1528 1528 1528 1529 1529 1529
1512 1513 1514 1515 1516 1518 1519 1520 1521 1522 1522 1523 1523 1523 1523 1522 1522 1522 1523 1523 1524 1524 1524 1525 1525 1525 1525 1526 1526 1527 1527 1528 1527 1528 1528 1528 1528 1528 1528 1528 1528 1528
1510 1512 1513 1514 1515 1516 1518 1519 1520 1520 1521 1522 1522 1522 1522 1522 1521 1521 1521 1521 1522 1523 1523 1523 1523 1523 1524 1524 1525 1525 1526 1527 1526 1527 1528 1528 1527 1527 1527 1527 1527 1528
1507 1509 1511 1512 1512 1514 1516 1517 1518 1519 1519 1520 1520 1521 1521 1521 1521 1520 1520 1520 1520 1521 1521 1521 1521 1521 1522 1522 1523 1524 1524 1525 1525 1525 1526 1527 1526 1526 1526 1526 1526 1527
1503 1505 1508 1510 1510 1511 1513 1514 1516 1517 1518 1518 1518 1519 1519 1519 1519 1520 1519 1519 1519 1519 1519 1519 1520 1520 1520 1520 1521 1522 1522 1522 1523 1523 1524 1525 1524 1525 1525 1525 1524 1525
1500 1502 1504 1506 1506 1507 1508 1510 1512 1513 1514 1515 1515 1516 1516 1516 1516 1517 1518 1518 1518 1518 1518 1518 1518 1518 1518 1518 1519 1520 1520 1520 1520 1521 1521 1522 1522 1523 1524 1524 1523 1523
1500 1501 1502 1502 1503 1503 1504 1506 1508 1509 1510 1511 1512 1512 1512 1512 1513 1514 1515 1516 1516 1517 1517 1517 1518 1518 1517 1516 1517 1517 1518 1518 1518 1518 1518 1519 1519 1520 1521 1521 1522 1522
1499 1499 1499 1500 1501 1501 1501 1502 1504 1506 1505 1506 1507 1508 1509 1509 1509 1510 1511 1513 1514 1514 1515 1516 1516 1517 1517 1515 1514 1514 1514 1515 1515 1515 1516 1516 1517 1517 1518 1518 1519 1520
1498 1499 1498 1498 1498 1499 1499 1499 1500 1501 1501 1501 1502 1504 1505 1505 1506 1506 1508 1509 1510 1511 1512 1513 1514 1515 1515 1513 1512 1512 1512 1513 1513 1513 1514 1514 1514 1515 1515 1516 1516 1517
1498 1498 1497 1496 1496 1497 1498 1497 1496 1498 1498 1499 1499 1500 1501 1501 1502 1503 1504 1505 1506 1507 1508 1509 1510 1510 1511 1511 1511 1511 1510 1511 1511 1511 1512 1512 1512 1513 1513 1513 1514 1514
1497 1497 1496 1496 1496 1496 1496 1496 1495 1496 1496 1496 1497 1498 1498 1498 1499 1500 1501 1502 1503 1503 1505 1506 1506 1506 1507 1509 1510 1509 1508 1508 1509 1509 1509 1510 1510 1510 1511 1511 1511 1512
1496 1496 1496 1496 1496 1496 1496 1495 1495 1495 1494 1494 1495 1495 1496 1496 1497 1498 1498 1499 1499 1500 1502 1502 1502 1503 1504 1506 1507 1506 1505 1505 1506 1506 1507 1507 1508 1508 1509 1509 1509 1510
1495 1495 1495 1495 1495 1495 1495 1495 1495 1494 1494 1493 1493 1494 1494 1494 1495 1495 1496 1496 1496 1497 1498 1497 1498 1500 1501 1501 1503 1503 1503 1503 1503 1504 1504 1505 1505 1506 1507 1507 1507 1508
1494 1494 1494 1494 1494 1494 1493 1493 1494 1494 1493 1493 1492 1492 1493 1493 1493 1493 1493 1494 1494 1494 1494 1494 1495 1495 1496 1497 1498 1500 1501 1501 1501 1501 1502 1503 1503 1503 1505 1505 1505 1506
1492 1492 1492 1492 1492 1492 1492 1492 1492 1492 1492 1492 1491 1491 1491 1491 1491 1490 1490 1491 1492 1491 1491 1492 1493 1492 1492 1494 1495 1497 1498 1499 1499 1499 1499 1500 1501 1501 1502 1503 1503 1503
1491 1491 1491 1491 1490 1490 1490 1490 1490 1490 1490 1490 1490 1490 1489 1489 1489 1488 1488 1489 1489 1489 1489 1490 1489 1489 1490 1491 1492 1494 1496 1497 1497 1497 1497 1498 1499 1499 1500 1500 1501 1501
1488 1488 1488 1488 1488 1488 1488 1488 1488 1488 1488 1488 1488 1488 1487 1487 1487 1486 1486 1486 1487 1487 1487 1486 1485 1486 1487 1489 1490 1492 1494 1495 1495 1494 1495 1496 1497 1497 1497 1497 1498 1498
1486 1486 1486 1485 1485 1486 1486 1486 1486 1486 1486 1486 1485 1485 1485 1485 1484 1484 1483 1484 1484 1484 1484 1483 1482 1484 1485 1486 1488 1490 1491 1493 1492 1492 1493 1495 1495 1495 1495 1495 1495 1495
1484 1484 1484 1483 1483 1483 1483 1483 1483 1483 1483 1483 1483 1483 1482 1482 1482 1482 1481 1481 1482 1482 1481 1479 1480 1482 1483 1484 1486 1487 1489 1490 1490 1490 1492 1493 1493 1493 1492 1492 1492 1492
1482 1481 1481 1481 1480 1480 1480 1480 1480 1480 1480 1480 1480 1480 1480 1480 1480 1480 1480 1479 1479 1478 1477 1476 1478 1480 1481 1482 1484 1485 1487 1488 1488 1489 1490 1491 1491 1491 1491 1491 1490 1489
1478 1478 1477 1477 1477 1477 1477 1477 1477 1477 1477 1477 1477 1477 1477 1477 1477 1477 1477 1476 1475 1474 1474 1475 1477 1478 1479 1481 1482 1483 1484 1485 1486 1487 1488 1488 1489 1489 1489 1489 1489 1487
1475 1475 1474 1474 1474 1473 1473 1473 1473 1473 1474 1474 1474 1474 1474 1475 1475 1474 1473 1471 1471 1472 1473 1474 1476 1477 1478 1479 1480 1481 1482 1483 1484 1485 1485 1486 1486 1486 1487 1486 1486 1486